User: anonymous
Location: Pine Mountain Observatory
(43.7910°N, 120.9377°W)
Time: 21:13:34
(UTC-07:00)
Language:

Cosmos 1867 - Orbit

View from above orbital plane
View from above orbital plane
View from above satellite
View from above satellite

Ground track
Ground track

The orbit data is extracted from the following two-line orbital elements,

1 18187U 87060A   14264.13729761 -.00000069  00000-0  11748-4 0  1688
2 18187 065.0097 147.4462 0014222 264.9926 094.9535 14.31026129420898
Epoch (UTC): 21 September 2014 03:17:42
Eccentricity: 0.0014222
inclination: 65.0097°
perigee height: 778 km
apogee height: 798 km
right ascension of ascending node: 147.4462°
argument of perigee: 264.9926°
revolutions per day: 14.31026129
mean anomaly at epoch: 94.9535°
orbit number at epoch: 42089

The dashed part of the orbit path shows where the satellite is in the earth's shadow,  

DLR